Regional Weather Roundup
Issued by NWS

Home | Current Version | Previous Version | Graphics & Text | Print | Product List | Glossary Off
Versions: 1 2 3 4 5 6 7 8 9 10 11 12 13 14 15 16 17 18 19 20 21 22 23 24 25 26 27 28 29 30 31 32 33 34 35 36 37 38 39 40 41 42 43 44 45 46 47 48 49 50

000
ASUS43 KTOP 300459
RWRKS

WEATHER ROUNDUP FOR KANSAS
NATIONAL WEATHER SERVICE GOODLAND KS
1200 AM CDT TUE AUG 30 2016

NOTE:  "FAIR" INDICATES FEW OR NO CLOUDS BELOW 12,000 FEET WITH NO
SIGNIFICANT WEATHER AND/OR OBSTRUCTIONS TO VISIBILITY.

KSZ001>006-013>018-027>032-041>047-300600-
NORTHWEST KANSAS

CITY           SKY/WX    TMP DP  RH WIND       PRES   REMARKS
GOODLAND       MOCLDY    64  60  87 S5        30.28R
HAYS           PTCLDY    68  61  77 CALM      30.21S
HILL CITY      CLOUDY    68  66  93 CALM      30.23R
RUSSELL        MOCLDY    68  67  96 N5        30.19S FOG
$$

KSZ061>065-074>080-084>089-300600-
SOUTHWEST KANSAS

CITY           SKY/WX    TMP DP  RH WIND       PRES   REMARKS
DODGE CITY     LGT RAIN  69  67  93 CALM      30.24R
ELKHART          N/A     65  61  87 SE8         N/A
GARDEN CITY    CLOUDY    67  65  93 SE8       30.25R
GREAT BEND     CLOUDY    70  61  73 CALM      30.20R
LIBERAL        CLOUDY    70  64  83 SW3       30.26S
$$

KSZ066>073-081>083-090>101-300600-
SOUTHEAST KANSAS

CITY           SKY/WX    TMP DP  RH WIND       PRES   REMARKS
CHANUTE        CLOUDY    75  72  90 NE3       30.15S
COFFEYVILLE    CLOUDY    73  71  93 E3        30.14S
HUTCHINSON     CLOUDY    72  69  90 NE7       30.17S
MEDICINE LODGE   N/A     72  69  90 NE5       30.16F
NEWTON         CLOUDY    74  70  87 E5        30.17F
PARSONS        CLOUDY    72  69  90 CALM      30.15F
WICHITA INTL   CLOUDY    76  69  79 SE3       30.15S
WICHITA JABRA  CLOUDY    75  71  87 CALM      30.16S
WINFIELD       CLOUDY    78  70  76 E5        30.15F
$$

KSZ007>012-019>026-033>040-048>060-102>105-300600-
NORTHEAST KANSAS

CITY           SKY/WX    TMP DP  RH WIND       PRES   REMARKS
CONCORDIA      CLOUDY    71  67  87 CALM      30.20R
EMPORIA        MOCLDY    74  71  91 SE6       30.16S
LAWRENCE       CLOUDY    74  73  97 CALM      30.15S
MANHATTAN      CLOUDY    73  68  84 N3        30.17R
OLATHE IND     CLOUDY    78  73  84 CALM      30.16F
OLATHE EXE     CLOUDY    78  72  81 NE3       30.16S
SALINA         PTCLDY    73  70  90 NW3       30.18S
TOPEKA BILLARD PTCLDY    76  74  93 CALM      30.15S
TOPEKA FORBES  CLOUDY    76  72  87 CALM      30.16R
$$




USA.gov is the U.S. government's official web portal to all federal, state and local government web resources and services.